Flag for Estonia Weather past 2 weeks in Tallinn, Estonia

Now
46 °F

Passing clouds.


Feels Like: 41 °F
Forecast: 45 / 57 °F
Wind: 12 mph from South

Location: Tallinn

Current Time: May 23, 2015 at 7:32:34 AM

Latest Report: May 23, 2015 at 6:20 AM


Visibility: N/A

Pressure: 29.89 "Hg

Humidity: 87%

Dew point: 43 °F

Location of TallinnLocation

Historic Weather in Tallinn — Graph

°F

Tallinn temperature yesterday

Maximum temperature yesterday: 64 °F (at 3:50 PM)
Minimum temperature yesterday: 39 °F (at 4:50 AM)
Average temperature yesterday: 54 °F

Past Weeks' High & Low Weather Summary

 TemperatureHumidityPressure
High66 °F (May 12, 1:50 PM)100% (May 8, 6:20 AM)30.24 "Hg (May 8, 6:20 AM)
Low30 °F (May 10, 3:50 AM)33% (May 10, 10:50 AM)29.42 "Hg (May 13, 4:50 AM)
Average49 °F75%29.84 "Hg
* Reported May 8 5:20 AM — May 23 5:50 AM, Tallinn, Weather by CustomWeather, © 2015

Note: Actual official high and low records may vary slightly from our data, if they occured in-between our weather recording intervals... More about our weather records

Advertising

Tallinn weather history for previous 24 hours

 ConditionsComfort  
Time TempWeatherWind HumidityBarometerVisibility
5:50 AM
Sat, May 23
46 °FPassing clouds.12 mph87%29.89 "HgN/A
5:20 AM46 °FPassing clouds.10 mph82%29.92 "HgN/A
4:50 AM45 °FClear.9 mph87%29.92 "Hg10 mi
4:20 AM45 °FPassing clouds.10 mph87%29.95 "HgN/A
3:50 AM45 °FClear.9 mph87%29.95 "Hg10 mi
3:20 AM45 °FClear.8 mph87%29.95 "Hg10 mi
2:50 AM45 °FClear.7 mph87%29.98 "Hg10 mi
2:20 AM45 °FClear.6 mph81%30.01 "Hg10 mi
1:50 AM46 °FClear.6 mph76%30.01 "Hg10 mi
1:20 AM46 °FClear.7 mph76%30.01 "Hg10 mi
12:50 AM48 °FClear.7 mph71%30.01 "Hg10 mi
12:20 AM48 °FClear.8 mph71%30.04 "Hg10 mi
11:50 PM
Fri, May 22
50 °FClear.7 mph71%30.04 "Hg10 mi
11:20 PM50 °FClear.6 mph76%30.04 "Hg10 mi
10:50 PM52 °FSunny.6 mph72%30.04 "Hg10 mi
10:20 PM54 °FSunny.7 mph67%30.07 "Hg10 mi
9:50 PM54 °FPassing clouds.5 mph67%30.07 "HgN/A
9:20 PM54 °FPassing clouds.3 mph63%30.07 "HgN/A
8:50 PM55 °FPassing clouds.5 mph59%30.07 "HgN/A
8:20 PM57 °FPassing clouds.6 mph55%30.07 "HgN/A
7:50 PM57 °FSunny.8 mph55%30.07 "Hg10 mi
7:20 PM59 °FSunny.10 mph55%30.07 "Hg10 mi
6:50 PM59 °FSunny.12 mph51%30.07 "Hg10 mi
6:20 PM57 °FSunny.7 mph63%30.09 "Hg10 mi
5:50 PM59 °FSunny.8 mph63%30.09 "Hg10 mi
5:20 PM64 °FSunny.10 mph49%30.09 "Hg10 mi
4:50 PM63 °FSunny.12 mph39%30.09 "Hg10 mi
4:20 PM64 °FSunny.13 mph34%30.09 "Hg10 mi
3:50 PM64 °FSunny.9 mph37%30.09 "Hg10 mi
3:20 PM61 °FSunny.8 mph52%30.09 "Hg10 mi
2:50 PM63 °FScattered clouds.12 mph42%30.09 "HgN/A
2:20 PM61 °FScattered clouds.9 mph52%30.12 "HgN/A
1:50 PM61 °FScattered clouds.10 mph48%30.12 "HgN/A
1:20 PM61 °FScattered clouds.12 mph48%30.12 "HgN/A
12:50 PM63 °FScattered clouds.10 mph52%30.12 "HgN/A
12:20 PM63 °FScattered clouds.9 mph49%30.12 "HgN/A
11:50 AM61 °FSunny.12 mph52%30.12 "Hg10 mi
11:20 AM61 °FSunny.12 mph52%30.15 "Hg10 mi
10:50 AM59 °FPassing clouds.10 mph55%30.15 "HgN/A
10:20 AM57 °FPassing clouds.10 mph59%30.15 "HgN/A
9:50 AM57 °FPassing clouds.10 mph59%30.15 "HgN/A
9:20 AM55 °FSunny.9 mph67%30.15 "Hg10 mi
8:50 AM54 °FSunny.9 mph72%30.15 "Hg10 mi
8:20 AM52 °FSunny.8 mph82%30.12 "Hg10 mi
7:50 AM50 °FSunny.6 mph82%30.12 "Hg10 mi
7:20 AM48 °FSunny.6 mph87%30.12 "Hg10 mi
Weather by CustomWeather, © 2015

See weather overviewHow to use our weather pages